User: anonymous   Login
Location: Corralito
(10.2667°N, 66.9500°W)
Time: 23:38:24
(UTC+00:00)
Language:

Spot 4 Rocket - Orbit

View from above orbital plane
View from above orbital plane
View from above satellite
View from above satellite

Ground track
Ground track

The orbit data is extracted from the following two-line orbital elements,

1 25261U 98017B   24114.56006815  .00001405  00000-0  50917-3 0  9999
2 25261  98.8486 114.6952 0002261 282.2301  77.8630 14.35031477363398
Epoch (UTC): 23 April 2024 13:26:29
Eccentricity: 0.0002261
inclination: 98.8486°
perigee height: 773 km
apogee height: 776 km
right ascension of ascending node: 114.6952°
argument of perigee: 282.2301°
revolutions per day: 14.35031477
mean anomaly at epoch: 77.8630°
orbit number at epoch: 36339

The dashed part of the orbit path shows where the satellite is in the earth's shadow,  

DLR